Regional Weather Roundup
Issued by NWS

Home | Current Version | Previous Version | Text Only | Print | Product List | Glossary Off
Versions: 1 2 3 4 5 6 7 8 9 10 11 12 13 14 15 16 17 18 19 20 21 22 23 24 25 26 27 28 29 30 31 32 33 34 35 36 37 38 39 40 41 42 43 44 45 46 47 48 49 50

000
ASUS45 KCYS 300810
RWRWY

WYOMING REGIONAL WEATHER ROUNDUP
NATIONAL WEATHER SERVICE CHEYENNE WY
200 AM MDT TUE JUN 30 2015

NOTE:  "FAIR" INDICATES FEW OR NO CLOUDS BELOW 12,000 FEET
WITH NO SIGNIFICANT WEATHER AND/OR OBSTRUCTIONS TO VISIBILITY.

WYZ001-300900-
YELLOWSTONE NATIONAL PARK

CITY           SKY/WX    TMP DP  RH WIND       PRES   REMARKS
LK YELLOWSTONE   N/A     56  50  80 NW5       30.40F
W YELLOWSTONE  NOT AVBL

$$
WYZ002>013-054>058-071-098>099-300900-
NORTHERN WYOMING

CITY           SKY/WX    TMP DP  RH WIND       PRES   REMARKS
JACKSON        FAIR      64  52  63 NE7       30.31F
CODY           MOCLDY    72  52  49 S16       30.15F
GREYBULL       MOCLDY    79  53  40 W12G24    30.07S
WORLAND        FAIR      76  53  44 VRB5      30.09F
SHERIDAN       FAIR      68  55  63 SW7       30.07F
BUFFALO        FAIR      71  52  50 NW10      30.15F
GILLETTE       FAIR      73  53  49 S14       30.08S
HULETT         FAIR      68  54  60 SW7       30.08F
NEWCASTLE      FAIR      66  52  59 CALM      30.10S

$$
WYZ014>020-022>026-101>103-300900-
CENTRAL WYOMING

CITY           SKY/WX    TMP DP  RH WIND       PRES   REMARKS
BIG PINEY      FAIR      62  49  62 W6        30.32F
PINEDALE       FAIR      64  46  52 W5        30.33S
DUBOIS         FAIR      59  50  72 NW7       30.35F
LANDER         FAIR      70  46  42 NW7       30.21R
RIVERTON       MOCLDY    69  45  41 NW7       30.20R
CASPER         FAIR      60  47  61 NW5       30.18S
DOUGLAS        FAIR      61  51  70 E6        30.16F

$$
WYZ021-027>030-104>119-300900-
SOUTHERN WYOMING

CITY           SKY/WX    TMP DP  RH WIND       PRES   REMARKS
EVANSTON       FAIR      69  43  38 SW5       30.29S
KEMMERER       FAIR      61  43  51 N12       30.31F
FORT BRIDGER   SUNNY     70  39  32 W8        30.30F
ROCK SPRINGS   FAIR      70  38  31 SE6       30.27R
DIXON          FAIR      63  44  49 E6        30.29S
RAWLINS        FAIR      61  44  53 NE9       30.29S
SARATOGA       FAIR      63  45  51 SE7       30.31F
LARAMIE        FAIR      56  47  71 SW5       30.33F
CHEYENNE       FAIR      59  45  59 W12       30.24F
TORRINGTON     FAIR      65  55  70 CALM      30.10S
PINE BLUFFS    FAIR      55  54  94 CALM      30.19F

$$


USA.gov is the U.S. government's official web portal to all federal, state and local government web resources and services.